Brest, Belarus

8:54 AM +03 on July 21, 2017 (GMT +0300)
Brest

Weather History for 33008 - April, 2013

Change the Weather History Date:

Monday, April 22, 2013

  Actual Average Record
Temperature  
Mean Temperature 50 °F -  
Max Temperature 63 °F 64 °F - ()
Min Temperature 37 °F 45 °F - ()
Degree Days  
Heating Degree Days 15    
Moisture  
Dew Point 28 °F    
Average Humidity 41    
Maximum Humidity 70    
Minimum Humidity 12    
Precipitation  
Precipitation 0.00 in 0.07 in - ()
Sea Level Pressure  
Sea Level Pressure 30.14 in    
Wind  
Wind Speed 6 mph ()    
Max Wind Speed 13 mph    
Max Gust Speed 20 mph    
Visibility 9.4 miles    
Events      
T = Trace of Precipitation, MM = Missing Value Source: Averaged Metar Reports

Daily Weather History Graph

Daily Weather History Graph

Search for Another Location

Airport or City:

Trip Planner

Search our weather history database for the weather conditions in past years. The results will help you decide how hot, cold, wet, or windy it might be!

Date:

Astronomy

Apr. 22, 2013 Rise Set
Actual Time 6:13 AM +03 8:35 PM +03
Civil Twilight 5:36 AM +03 9:12 PM +03
Nautical Twilight 4:49 AM +03 9:59 PM +03
Astronomical Twilight 3:54 AM +03 10:55 PM +03
Moon 4:40 PM +03 (4/22) 4:25 AM +03 (4/22)
Length of Visible Light 15h 36m
Length of Day
14h 21m
Waxing Gibbous, 85% of the Moon is Illuminated
Apr 22
Waxing Gibbous
Apr 25
Full
May 2
Last Quarter
May 10
New
May 18
First Quarter

Hourly Weather History & Observations

Time (+03) Temp. Windchill Dew Point Humidity Pressure Visibility Wind Dir Wind Speed Gust Speed Precip Events Conditions
12:00 AM 43 °F - 25 °F 35% 30.22 in 6 mi ENE 4.5 mph - -  
3:00 AM 41 °F - 27 °F 45% 30.21 in 6 mi East 2.2 mph - -  
5:00 AM 33.8 °F - 24.8 °F 70% 30.15 in 5.0 mi Calm Calm - N/A   Unknown
6:00 AM 37 °F - 28 °F 59% 30.20 in 6 mi East 6.7 mph - -  
6:00 AM 33.8 °F - 24.8 °F 70% 30.15 in 4.3 mi Calm Calm - N/A   Unknown
7:00 AM 35.6 °F 31.8 °F 26.6 °F 70% 30.15 in 5.0 mi East 4.5 mph - N/A   Unknown
8:00 AM 39.2 °F 36.0 °F 28.4 °F 65% 30.15 in 5.6 mi East 4.5 mph - N/A   Unknown
8:30 AM 39.2 °F 36.0 °F 28.4 °F 65% 30.18 in - East 4.5 mph - N/A   Clear
9:00 AM 46 °F - 28 °F 37% 30.18 in 6 mi SE 4.5 mph - -  
9:00 AM 42.8 °F 40.2 °F 30.2 °F 61% 30.18 in - East 4.5 mph - N/A   Clear
9:30 AM 42.8 °F 37.6 °F 30.2 °F 61% 30.18 in - ESE 8.9 mph - N/A   Clear
10:00 AM 50.0 °F - 32.0 °F 50% 30.15 in - SE 8.9 mph - N/A   Clear
10:30 AM 50.0 °F - 32.0 °F 50% 30.15 in - SE 8.9 mph 15.7 mph N/A   Clear
11:00 AM 55.4 °F - 33.8 °F 44% 30.15 in - SSE 11.2 mph 17.9 mph N/A   Clear
11:30 AM 55.4 °F - 33.8 °F 44% 30.15 in - SSE 11.2 mph 17.9 mph N/A   Clear
12:00 PM 57 °F - 24 °F 17% 30.16 in 19 mi SE 6.7 mph - -  
12:00 PM 55.4 °F - 32.0 °F 41% 30.15 in - SE 11.2 mph 17.9 mph N/A   Clear
12:30 PM 55.4 °F - 32.0 °F 41% 30.15 in - SSE 8.9 mph 15.7 mph N/A   Clear
1:00 PM 57.2 °F - 30.2 °F 36% 30.15 in - SSE 8.9 mph 15.7 mph N/A   Clear
1:30 PM 57.2 °F - 30.2 °F 36% 30.15 in - SSE 13.4 mph 20.1 mph N/A   Clear
2:00 PM 60.8 °F - 30.2 °F 31% 30.12 in - SSE 13.4 mph 20.1 mph N/A   Clear
2:30 PM 60.8 °F - 30.2 °F 31% 30.12 in - SSE 8.9 mph 15.7 mph N/A   Clear
3:00 PM 61 °F - 24 °F 14% 30.11 in 19 mi SE 6.7 mph - -  
3:00 PM 60.8 °F - 28.4 °F 29% 30.09 in - SE 11.2 mph 17.9 mph N/A   Clear
3:30 PM 60.8 °F - 28.4 °F 29% 30.09 in - SSE 8.9 mph 15.7 mph N/A   Clear
4:00 PM 60.8 °F - 26.6 °F 27% 30.09 in - SE 8.9 mph 15.7 mph N/A   Clear
4:30 PM 60.8 °F - 26.6 °F 27% 30.09 in - SE 8.9 mph - N/A   Clear
5:00 PM 62.6 °F - 24.8 °F 24% 30.09 in - SE 8.9 mph 15.7 mph N/A   Clear
5:30 PM 62.6 °F - 24.8 °F 24% 30.09 in - SE 8.9 mph 15.7 mph N/A   Clear
6:00 PM 63 °F - 24 °F 12% 30.06 in 19 mi South 6.7 mph - -  
9:00 PM 58 °F - 24 °F 16% 30.06 in 12 mi SE 4.5 mph - -